User: anonymous   Login
Location: Unspecified
(0.0000°N, 0.0000°E)
Time: 08:40:03
(UTC+02:00)
Language:

Delta 168 - Orbit

View from above orbital plane
View from above orbital plane
View from above satellite
View from above satellite

Ground track
Ground track

The orbit data is extracted from the following two-line orbital elements,

1 14051U 83041B   15088.37716834  .00010500  00000-0  10350-2 0  9995
2 14051 025.3322 062.7913 1115219 038.6974 113.3246 13.04397387472283
Epoch (UTC): 29 March 2015 09:03:07
Eccentricity: 0.1115219
inclination: 25.3322°
perigee height: 395 km
apogee height: 2095 km
right ascension of ascending node: 62.7913°
argument of perigee: 38.6974°
revolutions per day: 13.04397387
mean anomaly at epoch: 113.3246°
orbit number at epoch: 47228

The dashed part of the orbit path shows where the satellite is in the earth's shadow,  

DLR